CW9114 Weather Reports


Display with metric or nautical units.
time (UTC)temp
F
wind
direction
speed
MPH
gust
MPH
rain 1hr
in
rain 24hr
in
rain mn
in
humidity
%
barometer
mb
20260503213019 58 23 2.0 6.0 0.00 0.04 0.04 56 1000.5
20260503211524 59 34 4.0 6.0 0.00 0.04 0.04 52 1000.4
20260503210028 61 26 3.0 9.0 0.00 0.04 0.04 50 1000.2
20260503204511 62 353 4.0 8.0 0.00 0.04 0.04 48 1000.1
20260503203021 63 35 3.0 10.0 0.00 0.04 0.04 48 1000.1
20260503201522 62 321 4.0 7.0 0.00 0.04 0.04 48 1000.2
20260503200024 62 29 3.0 7.0 0.00 0.04 0.04 50 1000.4
20260503194525 62 39 2.0 6.0 0.00 0.04 0.04 50 1000.4
20260503193022 64 1 3.0 7.0 0.00 0.04 0.04 48 1000.5
20260503191518 62 73 2.0 6.0 0.00 0.04 0.04 51 1000.6
20260503190021 62 136 1.0 7.0 0.00 0.04 0.04 50 1000.9
20260503184536 63 352 2.0 5.0 0.00 0.04 0.04 50 1001.0
20260503183008 61 136 1.0 4.0 0.00 0.04 0.04 55 1001.3
20260503181515 62 98 1.0 4.0 0.00 0.04 0.04 54 1001.3
20260503180025 62 358 1.0 4.0 0.00 0.04 0.04 52 1001.2
20260503174523 64 44 2.0 9.0 0.00 0.04 0.04 48 1001.2
20260503173042 63 264 2.0 9.0 0.00 0.04 0.04 46 1001.4
20260503171509 64 185 2.0 6.0 0.00 0.04 0.04 44 1001.4
20260503081503 42 360 0.0 2.0 0.00 0.00 0.00 71 1006.6
20260503071519 43 360 1.0 3.0 0.00 0.00 0.00 69 1007.2
20260503054510 43 360 2.0 5.0 0.00 0.00 0.00 63 1008.1
20260503053012 42 360 0.0 5.0 0.00 0.00 0.00 66 1008.1
20260503051518 40 360 3.0 9.0 0.00 0.00 0.00 69 1008.3
20260503050020 37 360 1.0 4.0 0.00 0.00 0.00 73 1008.6
20260503044522 37 360 0.0 2.0 0.00 0.00 0.00 75 1008.7
20260503043011 37 360 0.0 1.0 0.00 0.00 0.00 74 1009.4
20260503041515 36 360 0.0 2.0 0.00 0.00 0.00 72 1009.4
20260503040020 36 360 0.0 2.0 0.00 0.00 0.00 70 1009.7
20260503034537 35 360 0.0 0.0 0.00 0.00 0.00 67 1010.0
20260503033008 36 360 0.0 0.0 0.00 0.00 0.00 64 1010.1
20260503031513 36 360 0.0 0.0 0.00 0.00 0.00 65 1010.6
20260503030017 37 360 0.0 0.0 0.00 0.00 0.00 62 1010.8
20260503024523 37 360 0.0 0.0 0.00 0.00 0.00 62 1011.1
20260503023006 38 360 0.0 1.0 0.00 0.00 0.00 58 1011.3
20260503021507 39 360 0.0 0.0 0.00 0.00 0.00 57 1011.5
20260503020014 39 145 0.0 0.0 0.00 0.00 0.00 56 1011.6
20260503014518 40 360 0.0 1.0 0.00 0.00 0.00 57 1011.7
20260503013022 41 360 0.0 1.0 0.00 0.00 0.00 54 1011.7
20260503011508 43 162 0.0 4.0 0.00 0.00 0.00 47 1011.7
20260503010008 43 360 0.0 2.0 0.00 0.00 0.00 47 1011.7
20260503004514 44 209 0.0 3.0 0.00 0.00 0.00 44 1011.7
20260503003019 45 160 1.0 4.0 0.00 0.00 0.00 43 1011.9
20260503001521 45 170 0.0 4.0 0.00 0.00 0.00 44 1012.0
20260503000007 45 123 0.0 3.0 0.00 0.00 0.00 41 1012.2
20260502234509 46 125 1.0 5.0 0.00 0.00 0.00 38 1012.3
20260502233015 46 131 2.0 6.0 0.00 0.00 0.00 37 1012.4
20260502231523 47 134 1.0 3.0 0.00 0.00 0.00 39 1012.5
20260502230024 47 360 1.0 3.0 0.00 0.00 0.00 37 1012.7
20260502224505 48 134 0.0 4.0 0.00 0.00 0.00 38 1012.8
20260502223015 48 48 0.0 5.0 0.00 0.00 0.00 37 1013.0
20260502221518 48 101 0.0 4.0 0.00 0.00 0.00 36 1013.0
20260502220023 47 155 1.0 4.0 0.00 0.00 0.00 35 1013.1
20260502214530 47 92 1.0 6.0 0.00 0.00 0.00 36 1013.2